| time (UTC) | temp F | wind direction | speed MPH | gust MPH | rain 1hr in | rain 24hr in | rain mn in | humidity % | barometer mb |
| 20260502231514 | 49 | 279 | 2.0 | 8.0 | 0.00 | 0.00 | 0.00 | 71 | 1012.0 |
| 20260502230008 | 49 | 258 | 1.0 | 6.0 | 0.00 | 0.00 | 0.00 | 71 | 1012.2 |
| 20260502224506 | 49 | 315 | 2.0 | 7.0 | 0.00 | 0.00 | 0.00 | 71 | 1012.3 |
| 20260502223003 | 49 | 272 | 2.0 | 9.0 | 0.00 | 0.00 | 0.00 | 71 | 1012.5 |
| 20260502221600 | 49 | 299 | 1.0 | 5.0 | 0.00 | 0.00 | 0.00 | 70 | 1012.5 |
| 20260502220059 | 49 | 281 | 2.0 | 7.0 | 0.00 | 0.00 | 0.00 | 70 | 1012.5 |
| 20260502214558 | 49 | 299 | 2.0 | 8.0 | 0.00 | 0.00 | 0.00 | 69 | 1012.5 |
| 20260502213105 | 49 | 286 | 2.0 | 9.0 | 0.00 | 0.00 | 0.00 | 69 | 1012.5 |
| 20260502211554 | 50 | 280 | 2.0 | 6.0 | 0.00 | 0.00 | 0.00 | 69 | 1012.5 |
| 20260502210052 | 50 | 271 | 1.0 | 4.0 | 0.00 | 0.00 | 0.00 | 69 | 1012.5 |
| 20260502204549 | 50 | 302 | 2.0 | 5.0 | 0.00 | 0.00 | 0.00 | 69 | 1012.6 |
| 20260502203016 | 51 | 298 | 1.0 | 10.0 | 0.00 | 0.00 | 0.00 | 68 | 1012.6 |
| 20260502201515 | 51 | 316 | 0.0 | 8.0 | 0.00 | 0.00 | 0.00 | 67 | 1012.7 |
| 20260502200017 | 51 | 273 | 1.0 | 5.0 | 0.00 | 0.00 | 0.00 | 67 | 1012.7 |
| 20260502194511 | 51 | 328 | 2.0 | 8.0 | 0.00 | 0.00 | 0.00 | 67 | 1012.8 |
| 20260502193020 | 51 | 302 | 0.0 | 7.0 | 0.00 | 0.00 | 0.00 | 67 | 1012.7 |
| 20260502191510 | 51 | 281 | 2.0 | 7.0 | 0.00 | 0.00 | 0.00 | 66 | 1012.6 |
| 20260502190006 | 51 | 274 | 2.0 | 8.0 | 0.00 | 0.00 | 0.00 | 66 | 1012.7 |
| 20260502184504 | 52 | 257 | 1.0 | 5.0 | 0.00 | 0.00 | 0.00 | 65 | 1012.7 |
| 20260502183003 | 52 | 276 | 1.0 | 7.0 | 0.00 | 0.00 | 0.00 | 65 | 1012.5 |
| 20260502181600 | 52 | 267 | 1.0 | 8.0 | 0.00 | 0.00 | 0.00 | 64 | 1012.5 |
| 20260502163042 | 59 | 300 | 2.0 | 10.0 | 0.00 | 0.00 | 0.00 | 54 | 1012.7 |
| 20260502161543 | 60 | 279 | 3.0 | 11.0 | 0.00 | 0.00 | 0.00 | 53 | 1012.7 |
| 20260502151532 | 65 | 247 | 3.0 | 8.0 | 0.00 | 0.00 | 0.00 | 45 | 1013.3 |
| 20260502123006 | 67 | 247 | 4.0 | 10.0 | 0.00 | 0.00 | 0.00 | 43 | 1014.9 |
| 20260502121505 | 68 | 262 | 3.0 | 12.0 | 0.00 | 0.00 | 0.00 | 42 | 1015.1 |
| 20260502114540 | 69 | 284 | 4.0 | 9.0 | 0.00 | 0.00 | 0.00 | 43 | 1015.3 |
| 20260502113038 | 69 | 197 | 4.0 | 14.0 | 0.00 | 0.00 | 0.00 | 43 | 1015.6 |
| 20260502111531 | 68 | 292 | 3.0 | 10.0 | 0.00 | 0.00 | 0.00 | 43 | 1015.7 |
| 20260502110029 | 68 | 260 | 2.0 | 8.0 | 0.00 | 0.00 | 0.00 | 42 | 1015.9 |
| 20260502104525 | 67 | 219 | 2.0 | 10.0 | 0.00 | 0.00 | 0.00 | 42 | 1016.1 |
| 20260502103050 | 67 | 271 | 4.0 | 10.0 | 0.00 | 0.00 | 0.00 | 45 | 1016.2 |
| 20260502101519 | 66 | 258 | 2.0 | 8.0 | 0.00 | 0.00 | 0.00 | 41 | 1016.5 |
| 20260502091505 | 65 | 261 | 3.0 | 10.0 | 0.00 | 0.00 | 0.00 | 44 | 1017.0 |
| 20260502071536 | 57 | 195 | 1.0 | 5.0 | 0.00 | 0.00 | 0.00 | 53 | 1017.8 |
| 20260502070033 | 57 | 285 | 1.0 | 4.0 | 0.00 | 0.00 | 0.00 | 53 | 1017.8 |
| 20260502064536 | 56 | 272 | 0.0 | 3.0 | 0.00 | 0.00 | 0.00 | 54 | 1017.9 |
| 20260502063027 | 55 | 279 | 0.0 | 3.0 | 0.00 | 0.00 | 0.00 | 57 | 1017.9 |
| 20260502061523 | 53 | 202 | 0.0 | 4.0 | 0.00 | 0.00 | 0.00 | 60 | 1018.0 |
| 20260502060023 | 51 | 331 | 0.0 | 4.0 | 0.00 | 0.00 | 0.00 | 63 | 1018.1 |
| 20260502054522 | 49 | 323 | 0.0 | 0.0 | 0.00 | 0.00 | 0.00 | 71 | 1018.1 |
| 20260502053021 | 46 | 323 | 0.0 | 2.0 | 0.00 | 0.00 | 0.00 | 73 | 1018.2 |
| 20260502051520 | 44 | 323 | 0.0 | 1.0 | 0.00 | 0.00 | 0.00 | 77 | 1018.3 |
| 20260502050018 | 42 | 323 | 0.0 | 2.0 | 0.00 | 0.00 | 0.00 | 78 | 1018.3 |
| 20260502044518 | 41 | 323 | 0.0 | 3.0 | 0.00 | 0.00 | 0.00 | 78 | 1018.2 |
| 20260502043019 | 41 | 322 | 1.0 | 3.0 | 0.00 | 0.00 | 0.00 | 78 | 1018.2 |
| 20260502041513 | 41 | 321 | 1.0 | 4.0 | 0.00 | 0.00 | 0.00 | 78 | 1018.2 |
| 20260502040013 | 41 | 317 | 1.0 | 3.0 | 0.00 | 0.00 | 0.00 | 78 | 1018.2 |
| 20260502034516 | 41 | 317 | 0.0 | 3.0 | 0.00 | 0.00 | 0.00 | 78 | 1018.3 |
| 20260502033012 | 40 | 333 | 0.0 | 5.0 | 0.00 | 0.00 | 0.00 | 80 | 1018.2 |
| 20260502031510 | 40 | 28 | 1.0 | 4.0 | 0.00 | 0.00 | 0.00 | 81 | 1018.2 |
| 20260502030009 | 40 | 56 | 1.0 | 3.0 | 0.00 | 0.00 | 0.00 | 82 | 1018.4 |
| 20260502024508 | 40 | 57 | 0.0 | 3.0 | 0.00 | 0.00 | 0.00 | 81 | 1018.4 |
| 20260502023008 | 40 | 58 | 2.0 | 3.0 | 0.00 | 0.00 | 0.00 | 82 | 1018.5 |
| 20260502021505 | 39 | 58 | 2.0 | 3.0 | 0.00 | 0.00 | 0.00 | 83 | 1018.5 |
| 20260502020005 | 38 | 59 | 2.0 | 3.0 | 0.00 | 0.00 | 0.00 | 84 | 1018.6 |
| 20260502014503 | 38 | 59 | 1.0 | 2.0 | 0.00 | 0.00 | 0.00 | 84 | 1018.6 |
| 20260502013001 | 38 | 59 | 0.0 | 1.0 | 0.00 | 0.00 | 0.00 | 84 | 1018.7 |
| 20260502011558 | 38 | 59 | 0.0 | 2.0 | 0.00 | 0.00 | 0.00 | 84 | 1018.8 |
| 20260502010058 | 38 | 59 | 0.0 | 3.0 | 0.00 | 0.00 | 0.00 | 84 | 1018.9 |
| 20260502004555 | 38 | 59 | 0.0 | 0.0 | 0.00 | 0.00 | 0.00 | 84 | 1018.9 |
| 20260502003056 | 38 | 59 | 0.0 | 0.0 | 0.00 | 0.00 | 0.00 | 84 | 1019.0 |
| 20260502001551 | 38 | 59 | 0.0 | 1.0 | 0.00 | 0.00 | 0.00 | 83 | 1019.1 |
| 20260502000050 | 39 | 59 | 0.0 | 1.0 | 0.00 | 0.00 | 0.00 | 82 | 1019.2 |
| 20260501234552 | 39 | 59 | 0.0 | 0.0 | 0.00 | 0.00 | 0.00 | 82 | 1019.3 |
| 20260501233054 | 39 | 59 | 0.0 | 0.0 | 0.00 | 0.00 | 0.00 | 82 | 1019.3 |